Southern Pines, NC

12:47 PM EST on February 08, 2016 (GMT -0500)
Moore County

Weather History for KSOP - February, 2013

Change the Weather History Date:

Tuesday, February 19, 2013

  Actual Average (KFAY) Record (KFAY)
Temperature  
Mean Temperature 42 °F 48 °F  
Max Temperature 51 °F 60 °F 84 °F (1956)
Min Temperature 33 °F 36 °F 8 °F (1958)
Degree Days  
Heating Degree Days 23 17  
Month to date heating degree days 354  
Since 1 July heating degree days 2080  
Cooling Degree Days 0 0  
Month to date cooling degree days 0  
Year to date cooling degree days 2  
Moisture  
Dew Point 36 °F    
Average Humidity 74    
Maximum Humidity 88    
Minimum Humidity 52    
Precipitation  
Precipitation 0.11 in 0.12 in 1.07 in (1964)
Month to date precipitation 1.87  
Year to date precipitation 5.17  
Sea Level Pressure  
Sea Level Pressure 30.04 in    
Wind  
Wind Speed 9 mph (SW)    
Max Wind Speed 21 mph    
Max Gust Speed 33 mph    
Visibility 9 miles    
Events      
T = Trace of Precipitation, MM = Missing Value Source: NWS Daily Summary

Daily Weather History Graph

Daily Weather History Graph

Search for Another Location

Airport or City:

Trip Planner

Search our weather history database for the weather conditions in past years. The results will help you decide how hot, cold, wet, or windy it might be!

Date:

Astronomy

Feb. 19, 2013 Rise Set
Actual Time 6:59 AM EST 6:04 PM EST
Civil Twilight 6:33 AM EST 6:29 PM EST
Nautical Twilight 6:03 AM EST 6:59 PM EST
Astronomical Twilight 5:34 AM EST 7:28 PM EST
Moon 12:41 PM EST (2/19) 2:22 AM EST (2/19)
Length of Visible Light 11h 56m
Length of Day
11h 05m
Waxing Gibbous, 67% of the Moon is Illuminated
Feb 19
Waxing Gibbous
Feb 25
Full
Mar 4
Last Quarter
Mar 11
New
Mar 19
First Quarter

Hourly Weather History & Observations

Time (EST) Temp. Windchill Dew Point Humidity Pressure Visibility Wind Dir Wind Speed Gust Speed Precip Events Conditions
12:15 AM 37.4 °F 31.4 °F 24.8 °F 60% 30.25 in 10.0 mi SSW 8.1 mph - N/A   Clear
12:35 AM 37.4 °F 30.8 °F 24.8 °F 60% 30.24 in 10.0 mi South 9.2 mph - N/A   Clear
12:55 AM 39.2 °F 34.2 °F 24.8 °F 56% 30.24 in 10.0 mi SSW 6.9 mph - N/A   Scattered Clouds
1:15 AM 39.2 °F 33.0 °F 24.8 °F 56% 30.24 in 10.0 mi South 9.2 mph - N/A   Overcast
1:35 AM 39.2 °F 34.2 °F 24.8 °F 56% 30.23 in 10.0 mi South 6.9 mph - N/A   Overcast
1:55 AM 39.2 °F 33.0 °F 24.8 °F 56% 30.23 in 10.0 mi SSW 9.2 mph - N/A   Overcast
2:15 AM 39.2 °F 33.6 °F 24.8 °F 56% 30.22 in 10.0 mi SSW 8.1 mph - N/A   Mostly Cloudy
2:35 AM 37.4 °F 29.8 °F 24.8 °F 60% 30.20 in 10.0 mi SSW 11.5 mph - N/A   Mostly Cloudy
2:55 AM 37.4 °F 30.3 °F 24.8 °F 60% 30.19 in 10.0 mi SSW 10.4 mph - N/A   Partly Cloudy
3:15 AM 37.4 °F 29.8 °F 24.8 °F 60% 30.18 in 10.0 mi SSW 11.5 mph - N/A   Clear
3:35 AM 37.4 °F 29.8 °F 24.8 °F 60% 30.17 in 10.0 mi SSW 11.5 mph - N/A   Clear
3:55 AM 37.4 °F 30.8 °F 23.0 °F 56% 30.15 in 10.0 mi South 9.2 mph - N/A   Clear
4:15 AM 39.2 °F 33.6 °F 23.0 °F 52% 30.15 in 10.0 mi SSW 8.1 mph - N/A   Clear
4:35 AM 37.4 °F 32.1 °F 23.0 °F 56% 30.14 in 10.0 mi SSW 6.9 mph - N/A   Clear
4:55 AM 37.4 °F 34.9 °F 24.8 °F 60% 30.13 in 10.0 mi South 3.5 mph - N/A   Clear
5:15 AM 35.6 °F - 24.8 °F 65% 30.15 in 10.0 mi Calm Calm - N/A   Clear
5:35 AM 33.8 °F - 23.0 °F 65% 30.14 in 10.0 mi Calm Calm - N/A   Clear
5:55 AM 33.8 °F - 24.8 °F 70% 30.12 in 10.0 mi Calm Calm - N/A   Mostly Cloudy
6:15 AM 35.6 °F - 26.6 °F 70% 30.13 in 10.0 mi Calm Calm - N/A   Overcast
6:55 AM 35.6 °F - 26.6 °F 70% 30.12 in 10.0 mi Calm Calm - N/A   Mostly Cloudy
7:35 AM 39.2 °F 35.9 °F 30.2 °F 70% 30.12 in 10.0 mi South 4.6 mph - N/A   Overcast
7:55 AM 39.2 °F 35.0 °F 30.2 °F 70% 30.11 in 10.0 mi South 5.8 mph - N/A   Overcast
8:15 AM 44.6 °F 39.7 °F 33.8 °F 66% 30.10 in 10.0 mi SSW 9.2 mph - N/A   Overcast
8:35 AM 46.4 °F 41.5 °F 35.6 °F 66% 30.09 in 10.0 mi SSW 10.4 mph 17.3 mph N/A   Overcast
8:55 AM 48.2 °F - 37.4 °F 66% 30.08 in 10.0 mi SSW 13.8 mph - N/A   Overcast
9:15 AM 48.2 °F - 37.4 °F 66% 30.08 in 10.0 mi SSW 13.8 mph 18.4 mph N/A   Mostly Cloudy
9:35 AM 46.4 °F 40.7 °F 37.4 °F 71% 30.08 in 10.0 mi SW 12.7 mph - N/A   Overcast
9:55 AM 46.4 °F 41.1 °F 37.4 °F 71% 30.08 in 10.0 mi SSW 11.5 mph - N/A   Overcast
10:35 AM 44.6 °F 39.2 °F 39.2 °F 81% 30.07 in 10.0 mi SW 10.4 mph - 0.03 in   Overcast
10:55 AM 46.4 °F 41.1 °F 41.0 °F 81% 30.06 in 10.0 mi SW 11.5 mph - 0.05 in   Overcast
11:15 AM 46.4 °F 40.4 °F 42.8 °F 87% 30.05 in 10.0 mi SW 13.8 mph 18.4 mph 0.02 in   Overcast
11:35 AM 48.2 °F - 44.6 °F 87% 30.03 in 10.0 mi SW 20.7 mph 29.9 mph 0.03 in   Overcast
11:55 AM 50.0 °F - 46.4 °F 87% 30.02 in 10.0 mi SW 18.4 mph 25.3 mph 0.04 in   Overcast
12:15 PM 50.0 °F - 46.4 °F 87% 30.01 in 10.0 mi SSW 18.4 mph 23.0 mph N/A   Overcast
12:35 PM 50.0 °F - 46.4 °F 87% 29.99 in 5.0 mi SW 20.7 mph 26.5 mph N/A   Overcast
1:15 PM 51.8 °F - 46.4 °F 82% 29.94 in 5.0 mi SW 19.6 mph 27.6 mph N/A   Overcast
1:35 PM 51.8 °F - 46.4 °F 82% 29.93 in 4.0 mi SSW 18.4 mph 33.4 mph N/A   Overcast
1:55 PM 51.8 °F - 46.4 °F 82% 29.93 in 2.5 mi SW 19.6 mph 31.1 mph 0.01 in   Overcast
2:15 PM 51.8 °F - 46.4 °F 82% 29.92 in 3.0 mi WSW 13.8 mph - 0.01 in   Overcast
2:35 PM 51.8 °F - 48.2 °F 88% 29.92 in 4.0 mi WSW 16.1 mph 23.0 mph 0.01 in   Overcast
2:55 PM 51.8 °F - 48.2 °F 88% 29.91 in 3.0 mi WSW 16.1 mph 24.2 mph 0.01 in   Overcast
3:15 PM 51.8 °F - 46.4 °F 82% 29.91 in 10.0 mi WSW 12.7 mph 24.2 mph N/A   Overcast
3:35 PM 51.8 °F - 46.4 °F 82% 29.90 in 10.0 mi SW 16.1 mph 23.0 mph N/A   Overcast
3:55 PM 51.8 °F - 46.4 °F 82% 29.89 in 10.0 mi WSW 16.1 mph 21.9 mph N/A   Overcast
4:15 PM 51.8 °F - 46.4 °F 82% 29.89 in 10.0 mi WSW 15.0 mph 21.9 mph N/A   Overcast
4:35 PM 51.8 °F - 46.4 °F 82% 29.88 in 10.0 mi WSW 15.0 mph 23.0 mph N/A   Overcast
4:55 PM 51.8 °F - 44.6 °F 76% 29.89 in 10.0 mi WSW 10.4 mph - N/A   Overcast
5:15 PM 51.8 °F - 44.6 °F 76% 29.89 in 10.0 mi WSW 9.2 mph - N/A   Overcast
5:35 PM 51.8 °F - 44.6 °F 76% 29.89 in 10.0 mi WSW 8.1 mph - N/A   Overcast
5:55 PM 50.0 °F - 44.6 °F 82% 29.90 in 10.0 mi WSW 10.4 mph 17.3 mph N/A   Overcast
6:15 PM 48.2 °F - 42.8 °F 82% 29.91 in 10.0 mi West 9.2 mph - N/A   Mostly Cloudy
7:35 PM 46.4 °F 43.5 °F 41.0 °F 81% 29.95 in 10.0 mi West 5.8 mph - N/A   Scattered Clouds
8:15 PM 44.6 °F 43.1 °F 39.2 °F 81% 29.96 in 10.0 mi West 3.5 mph - N/A   Clear
8:35 PM 44.6 °F - 39.2 °F 81% 29.97 in 10.0 mi Calm Calm - N/A   Scattered Clouds
8:55 PM 42.8 °F 41.1 °F 37.4 °F 81% 29.96 in 10.0 mi WSW 3.5 mph - N/A   Mostly Cloudy
9:15 PM 42.8 °F 40.1 °F 39.2 °F 87% 29.97 in 10.0 mi WSW 4.6 mph - N/A   Scattered Clouds
9:35 PM 44.6 °F - 39.2 °F 81% 29.97 in 10.0 mi Calm Calm - N/A   Scattered Clouds
10:15 PM 44.6 °F 43.1 °F 41.0 °F 87% 29.97 in 10.0 mi West 3.5 mph - N/A   Overcast
10:35 PM 44.6 °F 43.1 °F 41.0 °F 87% 29.97 in 10.0 mi West 3.5 mph - N/A   Overcast
10:55 PM 44.6 °F 43.1 °F 41.0 °F 87% 29.97 in 10.0 mi WNW 3.5 mph - N/A   Overcast
11:15 PM 42.8 °F 41.1 °F 39.2 °F 87% 29.98 in 10.0 mi West 3.5 mph - N/A   Mostly Cloudy
11:35 PM 42.8 °F 41.1 °F 39.2 °F 87% 29.98 in 10.0 mi WNW 3.5 mph - N/A   Clear
11:55 PM 42.8 °F - 37.4 °F 81% 29.98 in 10.0 mi Calm Calm - N/A   Clear